Location: ??????
(41.3164°N, 22.6615°E)
Time: 02:22:04
(UTC+00:00)

CAS-4A - Pass Details

Date: 12 July 2022
Orbit: 521 x 537 km, 43.0° (Epoch: 10 August)

Event Time Altitude Azimuth Distance (km) Brightness Sun altitude
Rises 20:08:34 0° 250° (WSW) 2,640 ? -18.3°
Reaches altitude 10° 20:10:48 10° 249° (WSW) 1,752 ? -18.5°
Maximum altitude 20:14:48 80° 163° (SSE) 533 ? -18.9°
Enters shadow 20:17:06 24° 78° (ENE) 1,097 ? -19.2°
